RYR40EQ LCPH-LHBP

Flight info

Callsign RYR40EQ
Flight time 2h 40m
Altitude 38000
Route GENOS DCT PEDER M855 TOMBI UA16 AYT UQ26 TUDBU Q26 UPAMA DCT DEGET DCT KEZAL
Aircraft B738/M-SDE2E3FGHIRWXY/LB1

Departure

Time 2026-05-04 17:41
Airport Paphos International Airport (LCPH)

Arrival

Time 2026-05-04 20:21
Airport Budapest Liszt Ferenc International Airport (LHBP)
Time Latitude Longitude Altitude Speed Heading
2026-05-04 17:20 34.71363 32.48755 42 ft 0 kts 154°
2026-05-04 17:33 34.71372 32.48750 42 ft 4 kts 156°
2026-05-04 17:33 34.71395 32.48735 41 ft 4 kts 142°
2026-05-04 17:34 34.71413 32.48687 41 ft 1 kts 65°
2026-05-04 17:36 34.71413 32.48689 41 ft 1 kts 65°
2026-05-04 17:36 34.71423 32.48713 42 ft 5 kts 64°
2026-05-04 17:36 34.71439 32.48756 41 ft 7 kts 66°
2026-05-04 17:37 34.71472 32.48842 42 ft 16 kts 64°
2026-05-04 17:37 34.71526 32.48958 42 ft 14 kts 41°
2026-05-04 17:37 34.71609 32.49005 43 ft 13 kts 31°
2026-05-04 17:37 34.71624 32.49105 43 ft 15 kts 110°
2026-05-04 17:38 34.71579 32.49254 39 ft 22 kts 109°
2026-05-04 17:38 34.71539 32.49425 38 ft 17 kts 84°
2026-05-04 17:38 34.71604 32.49538 39 ft 16 kts 47°
2026-05-04 17:38 34.71635 32.49649 39 ft 14 kts 110°
2026-05-04 17:39 34.71559 32.49899 38 ft 15 kts 111°
2026-05-04 17:39 34.71520 32.49964 38 ft 8 kts 158°
2026-05-04 17:39 34.71474 32.49938 37 ft 8 kts 231°
2026-05-04 17:40 34.71433 32.49875 37 ft 12 kts 229°
2026-05-04 17:40 34.71418 32.49778 35 ft 15 kts 290°
2026-05-04 17:40 34.71507 32.49488 38 ft 70 kts 290°
2026-05-04 17:40 34.71758 32.48668 43 ft 135 kts 290°
2026-05-04 17:41 34.72140 32.47442 318 ft 164 kts 294°
2026-05-04 17:41 34.72489 32.46125 1268 ft 158 kts 275°
2026-05-04 17:41 34.72334 32.44873 2323 ft 148 kts 257°
2026-05-04 17:41 34.72009 32.43581 2719 ft 175 kts 255°
2026-05-04 17:42 34.71623 32.42073 2963 ft 199 kts 255°
2026-05-04 17:42 34.71208 32.40386 3235 ft 216 kts 256°
2026-05-04 17:42 34.70783 32.38600 3682 ft 226 kts 257°
2026-05-04 17:42 34.70342 32.36685 4048 ft 240 kts 257°
2026-05-04 17:43 34.69900 32.34724 4744 ft 248 kts 257°
2026-05-04 17:43 34.69454 32.32708 5612 ft 248 kts 257°
2026-05-04 17:43 34.69009 32.30675 6442 ft 250 kts 257°
2026-05-04 17:43 34.68567 32.28640 7282 ft 250 kts 257°
2026-05-04 17:44 34.68123 32.26576 8030 ft 254 kts 257°
2026-05-04 17:44 34.67676 32.24495 8839 ft 256 kts 257°
2026-05-04 17:44 34.67227 32.22399 9638 ft 258 kts 257°
2026-05-04 17:44 34.66771 32.20277 10290 ft 265 kts 257°
2026-05-04 17:45 34.66286 32.18008 10455 ft 289 kts 258°
2026-05-04 17:45 34.66044 32.15514 10628 ft 309 kts 272°
2026-05-04 17:45 34.66224 32.12855 11043 ft 321 kts 275°
2026-05-04 17:45 34.66445 32.10139 11711 ft 324 kts 275°
2026-05-04 17:46 34.66663 32.07409 12487 ft 326 kts 275°
2026-05-04 17:46 34.66873 32.04654 13240 ft 329 kts 275°
2026-05-04 17:46 34.67077 32.01867 13961 ft 332 kts 275°
2026-05-04 17:46 34.67277 31.99062 14653 ft 335 kts 274°
2026-05-04 17:47 34.67475 31.96225 15348 ft 339 kts 274°
2026-05-04 17:47 34.67673 31.93364 16027 ft 342 kts 274°
2026-05-04 17:47 34.67990 31.90523 16707 ft 346 kts 283°
2026-05-04 17:47 34.68926 31.87805 17388 ft 352 kts 296°
2026-05-04 17:48 34.70158 31.85220 18071 ft 356 kts 298°
2026-05-04 17:48 34.71443 31.82627 18648 ft 360 kts 298°
2026-05-04 17:48 34.72749 31.80011 19231 ft 363 kts 298°
2026-05-04 17:48 34.74060 31.77376 19799 ft 366 kts 298°
2026-05-04 17:49 34.75376 31.74711 20345 ft 370 kts 298°
2026-05-04 17:49 34.76701 31.72013 20885 ft 373 kts 297°
2026-05-04 17:49 34.78032 31.69288 21427 ft 376 kts 297°
2026-05-04 17:49 34.79374 31.66533 21957 ft 380 kts 297°
2026-05-04 17:50 34.80724 31.63756 22476 ft 383 kts 297°
2026-05-04 17:50 34.81623 31.61903 22797 ft 386 kts 297°
2026-05-04 17:50 34.82994 31.59075 23280 ft 390 kts 297°
2026-05-04 17:50 34.84375 31.56223 23723 ft 393 kts 297°
2026-05-04 17:51 34.85765 31.53352 24141 ft 395 kts 297°
2026-05-04 17:51 34.87164 31.50460 24562 ft 398 kts 297°
2026-05-04 17:51 34.88572 31.47545 24987 ft 400 kts 297°
2026-05-04 17:51 34.89987 31.44615 25394 ft 402 kts 297°
2026-05-04 17:52 34.91406 31.41673 25785 ft 405 kts 298°
2026-05-04 17:52 34.92838 31.38702 26168 ft 407 kts 298°
2026-05-04 17:52 34.94276 31.35715 26521 ft 410 kts 298°
2026-05-04 17:52 34.95724 31.32706 26880 ft 413 kts 298°
2026-05-04 17:53 34.97163 31.29714 27227 ft 415 kts 298°
2026-05-04 17:53 34.98647 31.26623 27570 ft 418 kts 298°
2026-05-04 17:53 35.00118 31.23557 27923 ft 420 kts 298°
2026-05-04 17:53 35.01578 31.20513 28254 ft 422 kts 298°
2026-05-04 17:54 35.03064 31.17410 28572 ft 425 kts 298°
2026-05-04 17:54 35.04561 31.14284 28876 ft 428 kts 298°
2026-05-04 17:54 35.06062 31.11144 29184 ft 430 kts 298°
2026-05-04 17:54 35.07573 31.07982 29474 ft 432 kts 298°
2026-05-04 17:55 35.09091 31.04801 29797 ft 434 kts 298°
2026-05-04 17:55 35.10607 31.01623 30171 ft 433 kts 298°
2026-05-04 17:55 35.12118 30.98453 30579 ft 431 kts 298°
2026-05-04 17:55 35.13625 30.95289 30963 ft 429 kts 298°
2026-05-04 17:56 35.15152 30.92149 31288 ft 430 kts 303°
2026-05-04 17:56 35.17193 30.89453 31541 ft 436 kts 319°
2026-05-04 17:56 35.19785 30.87512 31895 ft 440 kts 332°
2026-05-04 17:56 35.22701 30.86331 32242 ft 446 kts 346°
2026-05-04 17:57 35.25813 30.86008 32568 ft 450 kts 354°
2026-05-04 17:57 35.28948 30.85920 32919 ft 450 kts 355°
2026-05-04 17:57 35.32035 30.85883 33231 ft 450 kts 355°
2026-05-04 17:57 35.35164 30.85840 33536 ft 450 kts 355°
2026-05-04 17:58 35.38291 30.85776 33859 ft 449 kts 354°
2026-05-04 17:58 35.41406 30.85690 34162 ft 447 kts 354°
2026-05-04 17:58 35.44514 30.85590 34393 ft 447 kts 354°
2026-05-04 17:58 35.47630 30.85482 34580 ft 448 kts 354°
2026-05-04 17:59 35.50752 30.85373 34791 ft 449 kts 354°
2026-05-04 17:59 35.53872 30.85265 35056 ft 448 kts 354°
2026-05-04 17:59 35.60095 30.85053 35477 ft 449 kts 354°
2026-05-04 18:00 35.63229 30.84934 35669 ft 449 kts 353°
2026-05-04 18:00 35.66355 30.84762 35916 ft 448 kts 353°
2026-05-04 18:00 35.69469 30.84562 36146 ft 448 kts 353°
2026-05-04 18:00 35.72588 30.84355 36324 ft 449 kts 353°
2026-05-04 18:01 35.75711 30.84150 36516 ft 449 kts 353°
2026-05-04 18:01 35.78832 30.83952 36753 ft 448 kts 353°
2026-05-04 18:01 35.81945 30.83758 36981 ft 448 kts 353°
2026-05-04 18:02 35.88178 30.83375 37339 ft 449 kts 353°
2026-05-04 18:02 35.91307 30.83184 37546 ft 449 kts 353°
2026-05-04 18:02 35.94425 30.82993 37748 ft 448 kts 353°
2026-05-04 18:02 35.97548 30.82802 37900 ft 449 kts 353°
2026-05-04 18:03 36.03794 30.82417 37907 ft 449 kts 353°
2026-05-04 18:03 36.09986 30.82160 37913 ft 448 kts 354°
2026-05-04 18:04 36.16215 30.81993 37911 ft 447 kts 355°
2026-05-04 18:05 36.25515 30.81715 37910 ft 445 kts 354°
2026-05-04 18:05 36.31700 30.81517 37910 ft 444 kts 354°
2026-05-04 18:06 36.40954 30.81219 37913 ft 443 kts 354°
2026-05-04 18:06 36.47115 30.81008 37913 ft 442 kts 354°
2026-05-04 18:07 36.53264 30.80785 37912 ft 442 kts 355°
2026-05-04 18:07 36.59379 30.80566 37921 ft 442 kts 355°
2026-05-04 18:08 36.65532 30.80346 37929 ft 442 kts 355°
2026-05-04 18:08 36.71688 30.80127 37936 ft 442 kts 355°
2026-05-04 18:09 36.84005 30.79688 37943 ft 443 kts 355°
2026-05-04 18:10 36.90176 30.79467 37944 ft 443 kts 355°
2026-05-04 18:10 36.96337 30.79354 37935 ft 444 kts 357°
2026-05-04 18:11 37.02517 30.79467 37936 ft 444 kts 358°
2026-05-04 18:11 37.08693 30.79594 37936 ft 444 kts 358°
2026-05-04 18:12 37.14865 30.79693 37940 ft 444 kts 358°
2026-05-04 18:12 37.21012 30.79775 37942 ft 444 kts 358°
2026-05-04 18:13 37.27201 30.79855 37952 ft 445 kts 358°
2026-05-04 18:14 37.36514 30.79977 37953 ft 447 kts 358°
2026-05-04 18:14 37.42744 30.80059 37962 ft 448 kts 358°
2026-05-04 18:15 37.55199 30.80224 37981 ft 449 kts 358°
2026-05-04 18:16 37.61449 30.80307 37969 ft 449 kts 358°
2026-05-04 18:16 37.67684 30.80390 37971 ft 448 kts 358°
2026-05-04 18:17 37.76993 30.80515 37970 ft 444 kts 358°
2026-05-04 18:18 37.86203 30.80639 37987 ft 440 kts 358°
2026-05-04 18:18 37.92314 30.80721 37987 ft 437 kts 358°
2026-05-04 18:19 38.01412 30.80843 37990 ft 435 kts 358°
2026-05-04 18:19 38.07450 30.80925 37994 ft 433 kts 358°
2026-05-04 18:20 38.13474 30.80939 37994 ft 432 kts 353°
2026-05-04 18:20 38.19428 30.80019 38001 ft 431 kts 350°
2026-05-04 18:21 38.25381 30.78977 38008 ft 433 kts 350°
2026-05-04 18:21 38.31365 30.77958 38025 ft 434 kts 350°
2026-05-04 18:22 38.37337 30.76964 38025 ft 437 kts 351°
2026-05-04 18:22 38.43396 30.75962 38022 ft 440 kts 351°
2026-05-04 18:23 38.49474 30.74956 38020 ft 442 kts 351°
2026-05-04 18:23 38.55581 30.73942 38021 ft 443 kts 351°
2026-05-04 18:24 38.61700 30.72924 38023 ft 444 kts 351°
2026-05-04 18:24 38.67823 30.71904 38021 ft 444 kts 351°
2026-05-04 18:25 38.73946 30.70882 38022 ft 443 kts 351°
2026-05-04 18:25 38.80051 30.69862 38022 ft 442 kts 351°
2026-05-04 18:26 38.86045 30.68326 38024 ft 438 kts 340°
2026-05-04 18:26 38.91543 30.65022 38028 ft 436 kts 332°
2026-05-04 18:27 38.96921 30.61438 38023 ft 435 kts 332°
2026-05-04 18:27 39.02264 30.57908 38034 ft 434 kts 333°
2026-05-04 18:28 39.07637 30.54391 38030 ft 433 kts 333°
2026-05-04 18:28 39.13018 30.50874 38035 ft 433 kts 333°
2026-05-04 18:29 39.18397 30.47353 38033 ft 433 kts 333°
2026-05-04 18:29 39.23772 30.43827 38037 ft 434 kts 333°
2026-05-04 18:30 39.31842 30.38522 38039 ft 434 kts 333°
2026-05-04 18:31 39.37230 30.34972 38037 ft 434 kts 333°
2026-05-04 18:31 39.42626 30.31411 38040 ft 435 kts 333°
2026-05-04 18:32 39.47983 30.27869 38044 ft 435 kts 333°
2026-05-04 18:32 39.53476 30.24564 38038 ft 435 kts 338°
2026-05-04 18:33 39.59095 30.21622 38036 ft 435 kts 338°
2026-05-04 18:33 39.64713 30.18687 38038 ft 435 kts 338°
2026-05-04 18:34 39.70324 30.15706 38035 ft 435 kts 338°
2026-05-04 18:34 39.75928 30.12704 38034 ft 435 kts 338°
2026-05-04 18:35 39.81532 30.09695 38040 ft 435 kts 338°
2026-05-04 18:35 39.87129 30.06686 38038 ft 435 kts 338°
2026-05-04 18:36 39.92691 30.03692 38039 ft 435 kts 338°
2026-05-04 18:36 39.98278 30.00678 38045 ft 435 kts 338°
2026-05-04 18:37 40.03861 29.97655 38037 ft 434 kts 338°
2026-05-04 18:37 40.09448 29.94624 38042 ft 435 kts 338°
2026-05-04 18:38 40.15034 29.91589 38041 ft 435 kts 338°
2026-05-04 18:38 40.20622 29.88549 38050 ft 435 kts 338°
2026-05-04 18:39 40.26206 29.85505 38038 ft 434 kts 338°
2026-05-04 18:39 40.31724 29.82492 38049 ft 434 kts 338°
2026-05-04 18:40 40.37324 29.79428 38041 ft 434 kts 339°
2026-05-04 18:40 40.41985 29.76874 38055 ft 433 kts 339°
2026-05-04 18:41 40.47459 29.73870 38044 ft 432 kts 339°
2026-05-04 18:41 40.53008 29.70819 38038 ft 431 kts 339°
2026-05-04 18:42 40.58522 29.67783 38041 ft 429 kts 339°
2026-05-04 18:42 40.64014 29.64747 38034 ft 427 kts 338°
2026-05-04 18:43 40.69078 29.60647 38051 ft 430 kts 324°
2026-05-04 18:43 40.73724 29.55698 38045 ft 429 kts 323°
2026-05-04 18:44 40.78355 29.50745 38043 ft 428 kts 323°
2026-05-04 18:44 40.82954 29.45871 38051 ft 428 kts 324°
2026-05-04 18:45 40.87605 29.40959 38048 ft 428 kts 324°
2026-05-04 18:45 40.92261 29.36035 38053 ft 429 kts 324°
2026-05-04 18:46 40.96922 29.31094 38051 ft 429 kts 324°
2026-05-04 18:46 41.01586 29.26141 38047 ft 430 kts 324°
2026-05-04 18:47 41.06254 29.21174 38045 ft 431 kts 323°
2026-05-04 18:47 41.10923 29.16184 38045 ft 432 kts 321°
2026-05-04 18:48 41.14881 29.10215 38048 ft 438 kts 307°
2026-05-04 18:48 41.18222 29.03454 38044 ft 438 kts 306°
2026-05-04 18:49 41.21552 28.96671 38045 ft 438 kts 306°
2026-05-04 18:49 41.24904 28.89915 38049 ft 438 kts 306°
2026-05-04 18:50 41.28271 28.83154 38046 ft 438 kts 306°
2026-05-04 18:50 41.31633 28.76394 38051 ft 438 kts 306°
2026-05-04 18:51 41.34984 28.69639 38046 ft 437 kts 306°
2026-05-04 18:51 41.38326 28.62885 38045 ft 437 kts 306°
2026-05-04 18:52 41.41662 28.56128 38049 ft 436 kts 306°
2026-05-04 18:52 41.44989 28.49377 38048 ft 436 kts 306°
2026-05-04 18:53 41.48311 28.42622 38050 ft 435 kts 306°
2026-05-04 18:53 41.52195 28.36530 38067 ft 430 kts 318°
2026-05-04 18:54 41.56490 28.30977 38053 ft 430 kts 318°
2026-05-04 18:54 41.60784 28.25410 38051 ft 430 kts 318°
2026-05-04 18:55 41.65055 28.19802 38055 ft 430 kts 317°
2026-05-04 18:55 41.71443 28.11352 38056 ft 431 kts 317°
2026-05-04 18:56 41.75709 28.05695 38059 ft 432 kts 317°
2026-05-04 18:56 41.79947 28.00064 38061 ft 432 kts 317°
2026-05-04 18:57 41.84215 27.94383 38065 ft 433 kts 317°
2026-05-04 18:57 41.88489 27.88682 38087 ft 433 kts 317°
2026-05-04 18:58 41.92765 27.82970 38072 ft 434 kts 317°
2026-05-04 18:58 41.97036 27.77250 38057 ft 434 kts 317°
2026-05-04 18:59 42.01276 27.71475 38077 ft 434 kts 316°
2026-05-04 18:59 42.05541 27.65743 38071 ft 433 kts 318°
2026-05-04 19:00 42.09907 27.60164 38073 ft 432 kts 319°
2026-05-04 19:00 42.14275 27.54595 38067 ft 432 kts 319°
2026-05-04 19:01 42.18624 27.49002 38071 ft 431 kts 318°
2026-05-04 19:01 42.22919 27.43445 38070 ft 431 kts 318°
2026-05-04 19:02 42.27236 27.37843 38075 ft 430 kts 318°
2026-05-04 19:02 42.31545 27.32239 38074 ft 430 kts 318°
2026-05-04 19:03 42.35850 27.26629 38067 ft 429 kts 318°
2026-05-04 19:03 42.40151 27.21014 38070 ft 429 kts 318°
2026-05-04 19:04 42.44438 27.15406 38079 ft 429 kts 317°
2026-05-04 19:04 42.48727 27.09783 38067 ft 429 kts 317°
2026-05-04 19:05 42.53011 27.04156 38071 ft 429 kts 317°
2026-05-04 19:05 42.57294 26.98520 38062 ft 429 kts 317°
2026-05-04 19:06 42.61545 26.92913 38060 ft 429 kts 317°
2026-05-04 19:06 42.65828 26.87254 38056 ft 430 kts 317°
2026-05-04 19:07 42.70115 26.81577 38054 ft 430 kts 317°
2026-05-04 19:07 42.74407 26.75883 38051 ft 431 kts 317°
2026-05-04 19:08 42.78703 26.70171 38048 ft 432 kts 317°
2026-05-04 19:08 42.83002 26.64443 38045 ft 432 kts 317°
2026-05-04 19:09 42.87300 26.58705 38051 ft 433 kts 317°
2026-05-04 19:09 42.91597 26.52958 38051 ft 433 kts 317°
2026-05-04 19:10 42.95891 26.47201 38048 ft 433 kts 317°
2026-05-04 19:10 43.00185 26.41433 38041 ft 433 kts 317°
2026-05-04 19:11 43.04476 26.35657 38050 ft 433 kts 316°
2026-05-04 19:11 43.08766 26.29870 38042 ft 433 kts 316°
2026-05-04 19:12 43.15194 26.21177 38046 ft 433 kts 316°
2026-05-04 19:13 43.19472 26.15376 38050 ft 433 kts 316°
2026-05-04 19:13 43.23719 26.09606 38051 ft 433 kts 316°
2026-05-04 19:14 43.27996 26.03782 38051 ft 432 kts 316°
2026-05-04 19:14 43.32260 25.97963 38053 ft 432 kts 316°
2026-05-04 19:15 43.36525 25.92132 38046 ft 433 kts 316°
2026-05-04 19:15 43.40787 25.86292 38050 ft 433 kts 316°
2026-05-04 19:16 43.45050 25.80440 38057 ft 433 kts 316°
2026-05-04 19:16 43.49314 25.74573 38048 ft 433 kts 316°
2026-05-04 19:17 43.53575 25.68696 38050 ft 433 kts 316°
2026-05-04 19:17 43.57832 25.62815 38056 ft 433 kts 316°
2026-05-04 19:18 43.62056 25.56965 38057 ft 433 kts 316°
2026-05-04 19:18 43.66306 25.51067 38055 ft 433 kts 316°
2026-05-04 19:19 43.70552 25.45163 38064 ft 433 kts 316°
2026-05-04 19:19 43.74792 25.39254 38059 ft 433 kts 316°
2026-05-04 19:20 43.79038 25.33324 38051 ft 433 kts 316°
2026-05-04 19:20 43.83275 25.27394 38060 ft 433 kts 316°
2026-05-04 19:21 43.87520 25.21455 38064 ft 434 kts 316°
2026-05-04 19:21 43.91780 25.15534 38062 ft 434 kts 316°
2026-05-04 19:22 43.96044 25.09599 38063 ft 434 kts 316°
2026-05-04 19:22 44.00282 25.03683 38064 ft 435 kts 316°
2026-05-04 19:23 44.04545 24.97716 38064 ft 435 kts 316°
2026-05-04 19:23 44.08811 24.91731 38059 ft 436 kts 316°
2026-05-04 19:24 44.13072 24.85738 38059 ft 436 kts 316°
2026-05-04 19:24 44.17333 24.79734 38059 ft 436 kts 316°
2026-05-04 19:25 44.21598 24.73710 38064 ft 436 kts 315°
2026-05-04 19:25 44.25852 24.67688 38058 ft 436 kts 315°
2026-05-04 19:26 44.30100 24.61662 38059 ft 436 kts 315°
2026-05-04 19:26 44.34352 24.55617 38065 ft 435 kts 315°
2026-05-04 19:27 44.38594 24.49573 38059 ft 435 kts 315°
2026-05-04 19:27 44.42108 24.44556 38063 ft 434 kts 315°
2026-05-04 19:28 44.46332 24.38513 38064 ft 434 kts 315°
2026-05-04 19:28 44.50548 24.32469 38064 ft 434 kts 315°
2026-05-04 19:29 44.54761 24.26414 38065 ft 433 kts 315°
2026-05-04 19:29 44.58965 24.20361 38069 ft 433 kts 315°
2026-05-04 19:30 44.63167 24.14296 38068 ft 433 kts 315°
2026-05-04 19:30 44.67366 24.08222 38069 ft 434 kts 315°
2026-05-04 19:31 44.71568 24.02132 38068 ft 434 kts 315°
2026-05-04 19:31 44.75771 23.96025 38069 ft 434 kts 315°
2026-05-04 19:32 44.79971 23.89910 38072 ft 435 kts 315°
2026-05-04 19:32 44.84177 23.83770 38070 ft 435 kts 315°
2026-05-04 19:33 44.88382 23.77621 38077 ft 436 kts 315°
2026-05-04 19:33 44.92560 23.71496 38070 ft 436 kts 315°
2026-05-04 19:34 44.96768 23.65314 38074 ft 436 kts 315°
2026-05-04 19:34 45.00970 23.59125 38078 ft 436 kts 315°
2026-05-04 19:35 45.05172 23.52923 38082 ft 436 kts 315°
2026-05-04 19:35 45.09368 23.46717 38086 ft 436 kts 315°
2026-05-04 19:36 45.13558 23.40505 38089 ft 436 kts 315°
2026-05-04 19:36 45.17742 23.34287 38097 ft 436 kts 315°
2026-05-04 19:37 45.21916 23.28071 38099 ft 435 kts 315°
2026-05-04 19:37 45.26085 23.21847 38099 ft 435 kts 315°
2026-05-04 19:38 45.30240 23.15629 38113 ft 433 kts 315°
2026-05-04 19:38 45.34358 23.09454 38104 ft 433 kts 315°
2026-05-04 19:39 45.38499 23.03231 38119 ft 432 kts 315°
2026-05-04 19:39 45.42632 22.97005 38120 ft 432 kts 315°
2026-05-04 19:40 45.46760 22.90772 38120 ft 433 kts 315°
2026-05-04 19:40 45.50885 22.84530 38117 ft 432 kts 315°
2026-05-04 19:41 45.55006 22.78280 38119 ft 432 kts 314°
2026-05-04 19:41 45.59115 22.72033 38117 ft 432 kts 314°
2026-05-04 19:42 45.63221 22.65776 38113 ft 432 kts 314°
2026-05-04 19:42 45.67324 22.59510 38108 ft 431 kts 314°
2026-05-04 19:43 45.71396 22.53276 38108 ft 431 kts 314°
2026-05-04 19:43 45.75493 22.46991 38109 ft 432 kts 314°
2026-05-04 19:44 45.79588 22.40693 38104 ft 432 kts 314°
2026-05-04 19:44 45.83681 22.34384 38098 ft 432 kts 314°
2026-05-04 19:45 45.87772 22.28063 38100 ft 432 kts 314°
2026-05-04 19:45 45.91854 22.21742 38094 ft 432 kts 314°
2026-05-04 19:46 45.95933 22.15411 38093 ft 432 kts 314°
2026-05-04 19:46 46.00009 22.09069 38091 ft 431 kts 314°
2026-05-04 19:47 46.04084 22.02715 38093 ft 431 kts 314°
2026-05-04 19:47 46.08120 21.96405 38093 ft 431 kts 314°
2026-05-04 19:48 46.12181 21.90043 38080 ft 431 kts 314°
2026-05-04 19:48 46.16244 21.83662 37785 ft 436 kts 314°
2026-05-04 19:48 46.18302 21.80427 37202 ft 436 kts 314°
2026-05-04 19:49 46.20342 21.77212 36683 ft 433 kts 314°
2026-05-04 19:49 46.22373 21.74007 36152 ft 431 kts 314°
2026-05-04 19:49 46.24393 21.70817 35635 ft 430 kts 314°
2026-05-04 19:49 46.26413 21.67624 35148 ft 429 kts 315°
2026-05-04 19:50 46.28423 21.64442 34659 ft 428 kts 315°
2026-05-04 19:50 46.30434 21.61257 34182 ft 431 kts 315°
2026-05-04 19:50 46.32464 21.58040 33659 ft 435 kts 315°
2026-05-04 19:50 46.34515 21.54786 33125 ft 439 kts 315°
2026-05-04 19:51 46.36573 21.51515 32594 ft 440 kts 315°
2026-05-04 19:51 46.38629 21.48240 32076 ft 440 kts 315°
2026-05-04 19:51 46.40683 21.44965 31558 ft 439 kts 315°
2026-05-04 19:51 46.42708 21.41729 31794 ft 426 kts 315°
2026-05-04 19:52 46.44701 21.38543 32061 ft 427 kts 315°
2026-05-04 19:52 46.48759 21.32054 32078 ft 440 kts 315°
2026-05-04 19:53 46.52768 21.25615 32050 ft 413 kts 314°
2026-05-04 19:53 46.56535 21.19551 32063 ft 401 kts 315°
2026-05-04 19:54 46.60283 21.13517 32078 ft 403 kts 314°
2026-05-04 19:54 46.64047 21.07442 32071 ft 405 kts 314°
2026-05-04 19:55 46.67823 21.01331 32066 ft 406 kts 314°
2026-05-04 19:55 46.71577 20.95240 32062 ft 406 kts 314°
2026-05-04 19:56 46.75339 20.89120 32062 ft 405 kts 314°
2026-05-04 19:56 46.77220 20.86056 31680 ft 408 kts 314°
2026-05-04 19:56 46.79111 20.82973 31067 ft 403 kts 314°
2026-05-04 19:56 46.80973 20.79931 30508 ft 396 kts 314°
2026-05-04 19:57 46.82781 20.76972 30056 ft 387 kts 314°
2026-05-04 19:57 46.84557 20.74065 29543 ft 381 kts 314°
2026-05-04 19:57 46.86323 20.71174 29107 ft 382 kts 313°
2026-05-04 19:57 46.88097 20.68267 28644 ft 385 kts 313°
2026-05-04 19:58 46.89876 20.65348 28172 ft 384 kts 313°
2026-05-04 19:58 46.91642 20.62446 27726 ft 380 kts 313°
2026-05-04 19:58 46.93391 20.59568 27265 ft 377 kts 313°
2026-05-04 19:58 46.95126 20.56712 26821 ft 375 kts 313°
2026-05-04 19:59 46.96857 20.53858 26371 ft 373 kts 313°
2026-05-04 19:59 46.98579 20.51016 25939 ft 372 kts 313°
2026-05-04 19:59 47.00306 20.48163 25508 ft 375 kts 313°
2026-05-04 19:59 47.02043 20.45291 25063 ft 376 kts 313°
2026-05-04 20:00 47.03755 20.42458 24622 ft 375 kts 312°
2026-05-04 20:00 47.05480 20.39598 24171 ft 374 kts 312°
2026-05-04 20:00 47.07207 20.36733 23728 ft 373 kts 312°
2026-05-04 20:00 47.08919 20.33890 23206 ft 371 kts 312°
2026-05-04 20:01 47.10608 20.31081 22711 ft 361 kts 312°
2026-05-04 20:01 47.12234 20.28377 22293 ft 353 kts 312°
2026-05-04 20:01 47.13846 20.25692 21863 ft 348 kts 312°
2026-05-04 20:01 47.15438 20.23038 21445 ft 343 kts 312°
2026-05-04 20:02 47.17049 20.20444 20981 ft 345 kts 313°
2026-05-04 20:02 47.18700 20.17856 20563 ft 348 kts 314°
2026-05-04 20:02 47.20363 20.15261 20142 ft 348 kts 314°
2026-05-04 20:02 47.22018 20.12672 19723 ft 345 kts 313°
2026-05-04 20:03 47.23659 20.10098 19307 ft 343 kts 313°
2026-05-04 20:03 47.25286 20.07536 18903 ft 342 kts 313°
2026-05-04 20:03 47.26903 20.04985 18503 ft 340 kts 313°
2026-05-04 20:03 47.28494 20.02471 18073 ft 339 kts 313°
2026-05-04 20:04 47.30106 19.99923 17628 ft 338 kts 313°
2026-05-04 20:04 47.31697 19.97403 17196 ft 334 kts 313°
2026-05-04 20:04 47.33264 19.94920 16794 ft 328 kts 313°
2026-05-04 20:04 47.34808 19.92471 16390 ft 323 kts 312°
2026-05-04 20:05 47.36333 19.90053 15998 ft 319 kts 312°
2026-05-04 20:05 47.37829 19.87672 15620 ft 314 kts 310°
2026-05-04 20:05 47.38913 19.84940 15238 ft 308 kts 285°
2026-05-04 20:05 47.39169 19.81859 14901 ft 301 kts 264°
2026-05-04 20:06 47.38747 19.78868 14560 ft 296 kts 253°
2026-05-04 20:06 47.38169 19.75968 14213 ft 294 kts 252°
2026-05-04 20:06 47.37583 19.73091 13851 ft 292 kts 252°
2026-05-04 20:06 47.37012 19.70226 13460 ft 290 kts 252°
2026-05-04 20:07 47.36453 19.67376 13089 ft 288 kts 252°
2026-05-04 20:07 47.35902 19.64549 12730 ft 286 kts 252°
2026-05-04 20:07 47.35431 19.61713 12363 ft 286 kts 264°
2026-05-04 20:07 47.35705 19.58813 12020 ft 289 kts 290°
2026-05-04 20:08 47.36750 19.56302 11690 ft 292 kts 309°
2026-05-04 20:08 47.38113 19.54071 11344 ft 294 kts 311°
2026-05-04 20:08 47.39519 19.51869 10946 ft 296 kts 311°
2026-05-04 20:08 47.40938 19.49650 10568 ft 298 kts 311°
2026-05-04 20:09 47.42335 19.47448 10414 ft 288 kts 311°
2026-05-04 20:09 47.43677 19.45318 10107 ft 282 kts 310°
2026-05-04 20:09 47.45004 19.43198 9739 ft 280 kts 310°
2026-05-04 20:09 47.46326 19.41075 9356 ft 280 kts 310°
2026-05-04 20:10 47.47641 19.38960 8972 ft 279 kts 310°
2026-05-04 20:10 47.48946 19.36859 8592 ft 277 kts 310°
2026-05-04 20:10 47.50244 19.34764 8214 ft 275 kts 310°
2026-05-04 20:10 47.51535 19.32679 7847 ft 274 kts 310°
2026-05-04 20:11 47.52821 19.30601 7486 ft 274 kts 310°
2026-05-04 20:11 47.54107 19.28519 7125 ft 274 kts 310°
2026-05-04 20:11 47.55395 19.26434 6761 ft 273 kts 310°
2026-05-04 20:11 47.56669 19.24369 6400 ft 270 kts 310°
2026-05-04 20:12 47.57929 19.22327 6018 ft 267 kts 310°
2026-05-04 20:12 47.59154 19.20341 5642 ft 262 kts 310°
2026-05-04 20:12 47.60370 19.18365 5347 ft 255 kts 309°
2026-05-04 20:12 47.61545 19.16457 5116 ft 246 kts 309°
2026-05-04 20:13 47.62680 19.14612 4877 ft 238 kts 309°
2026-05-04 20:13 47.63778 19.12825 4641 ft 231 kts 309°
2026-05-04 20:13 47.64850 19.11079 4341 ft 227 kts 308°
2026-05-04 20:13 47.65886 19.09391 4155 ft 215 kts 308°
2026-05-04 20:14 47.66745 19.07698 3979 ft 195 kts 283°
2026-05-04 20:14 47.66809 19.06462 3988 ft 175 kts 250°
2026-05-04 20:14 47.66118 19.05071 4015 ft 170 kts 217°
2026-05-04 20:14 47.65212 19.03941 3982 ft 169 kts 219°
2026-05-04 20:15 47.64309 19.02839 3980 ft 166 kts 213°
2026-05-04 20:15 47.63307 19.02005 3989 ft 166 kts 203°
2026-05-04 20:15 47.62205 19.01467 3980 ft 168 kts 193°
2026-05-04 20:15 47.61040 19.01302 3994 ft 170 kts 180°
2026-05-04 20:16 47.59871 19.01561 4006 ft 171 kts 168°
2026-05-04 20:16 47.58753 19.02159 3986 ft 171 kts 159°
2026-05-04 20:16 47.57697 19.03001 3945 ft 174 kts 153°
2026-05-04 20:16 47.56658 19.03961 3747 ft 177 kts 148°
2026-05-04 20:17 47.55706 19.05082 3522 ft 175 kts 143°
2026-05-04 20:17 47.54798 19.06236 3301 ft 169 kts 142°
2026-05-04 20:17 47.53963 19.07434 3081 ft 165 kts 139°
2026-05-04 20:17 47.53188 19.08646 2863 ft 160 kts 138°
2026-05-04 20:18 47.52441 19.09843 2670 ft 158 kts 138°
2026-05-04 20:18 47.51690 19.11052 2473 ft 161 kts 138°
2026-05-04 20:18 47.50933 19.12276 2245 ft 159 kts 137°
2026-05-04 20:18 47.50215 19.13439 2072 ft 145 kts 138°
2026-05-04 20:19 47.49552 19.14510 1861 ft 139 kts 139°
2026-05-04 20:19 47.48895 19.15568 1687 ft 141 kts 137°
2026-05-04 20:19 47.48232 19.16638 1485 ft 142 kts 136°
2026-05-04 20:19 47.47557 19.17723 1299 ft 147 kts 134°
2026-05-04 20:20 47.46867 19.18849 1090 ft 144 kts 133°
2026-05-04 20:20 47.46194 19.19942 844 ft 142 kts 132°
2026-05-04 20:20 47.45527 19.21013 679 ft 142 kts 131°
2026-05-04 20:20 47.44863 19.22094 514 ft 141 kts 131°
2026-05-04 20:21 47.44229 19.23124 453 ft 124 kts 133°
2026-05-04 20:21 47.43764 19.23870 453 ft 82 kts 132°
2026-05-04 20:21 47.43214 19.24757 455 ft 34 kts 132°
2026-05-04 20:22 47.43105 19.24956 456 ft 19 kts 110°
2026-05-04 20:22 47.43144 19.25118 455 ft 18 kts 42°
2026-05-04 20:22 47.43226 19.25228 456 ft 14 kts 41°
2026-05-04 20:22 47.43299 19.25326 456 ft 14 kts 41°
2026-05-04 20:23 47.43368 19.25419 456 ft 13 kts 43°
2026-05-04 20:23 47.43435 19.25509 456 ft 13 kts 42°
2026-05-04 20:23 47.43502 19.25598 456 ft 14 kts 42°
2026-05-04 20:23 47.43588 19.25715 456 ft 20 kts 41°
2026-05-04 20:24 47.43696 19.25855 456 ft 18 kts 43°
2026-05-04 20:24 47.43745 19.25944 456 ft 2 kts 77°
2026-05-04 20:24 47.43745 19.25946 456 ft 1 kts 85°
2026-05-04 20:24 47.43726 19.25987 456 ft 8 kts 133°
2026-05-04 20:25 47.43688 19.26052 456 ft 8 kts 126°
2026-05-04 20:25 47.43676 19.26135 456 ft 8 kts 89°
2026-05-04 20:25 47.43678 19.26225 456 ft 10 kts 88°
2026-05-04 20:25 47.43673 19.26328 455 ft 11 kts 118°
2026-05-04 20:26 47.43630 19.26408 457 ft 6 kts 129°
2026-05-04 20:26 47.43611 19.26438 457 ft 3 kts 133°
2026-05-04 20:26 47.43600 19.26456 457 ft 2 kts 133°
2026-05-04 20:26 47.43596 19.26462 457 ft 0 kts 133°
2026-05-04 20:28 47.43584 19.26477 457 ft 5 kts 155°
2026-05-04 20:28 47.43547 19.26447 457 ft 7 kts 221°
2026-05-04 20:28 47.43538 19.26435 457 ft 1 kts 221°
2026-05-04 20:28 47.43537 19.26435 457 ft 0 kts 221°